FW8833 Weather Reports


Display with metric or nautical units.
time (UTC)temp
F
wind
direction
speed
MPH
gust
MPH
rain 1hr
in
rain 24hr
in
rain mn
in
humidity
%
barometer
mb
20260502215020 69 74 2.0 11.0 0.00 0.00 0.00 17 1018.2
20260502214534 69 132 4.0 11.0 0.00 0.00 0.00 17 1018.5
20260502214020 70 171 2.0 14.0 0.00 0.00 0.00 14 1018.4
20260502213521 69 173 4.0 14.0 0.00 0.00 0.00 16 1018.6
20260502213039 70 148 7.0 13.0 0.00 0.00 0.00 17 1018.7
20260502212523 71 163 3.0 7.0 0.00 0.00 0.00 16 1018.7
20260502212022 71 58 2.0 6.0 0.00 0.00 0.00 18 1018.7
20260502211541 70 72 2.0 6.0 0.00 0.00 0.00 21 1018.6
20260502211024 70 163 2.0 7.0 0.00 0.00 0.00 21 1018.7
20260502210537 69 165 3.0 7.0 0.00 0.00 0.00 17 1018.7
20260502210049 69 81 3.0 6.0 0.00 0.00 0.00 17 1018.7
20260502205522 69 51 3.0 5.0 0.00 0.00 0.00 18 1019.1
20260502205020 69 51 2.0 9.0 0.00 0.00 0.00 20 1019.1
20260502204541 69 159 2.0 9.0 0.00 0.00 0.00 18 1019.1
20260502204019 69 160 2.0 8.0 0.00 0.00 0.00 22 1019.2
20260502203521 68 29 1.0 8.0 0.00 0.00 0.00 18 1019.3
20260502203040 68 107 3.0 10.0 0.00 0.00 0.00 20 1019.3
20260502202521 68 78 4.0 10.0 0.00 0.00 0.00 19 1019.4
20260502202018 69 153 3.0 11.0 0.00 0.00 0.00 20 1019.5
20260502201545 68 71 5.0 11.0 0.00 0.00 0.00 21 1019.4
20260502201021 68 59 1.0 12.0 0.00 0.00 0.00 19 1019.6
20260502200521 68 74 4.0 12.0 0.00 0.00 0.00 21 1019.6
20260502200036 68 118 2.0 9.0 0.00 0.00 0.00 20 1019.6
20260502195519 67 161 4.0 9.0 0.00 0.00 0.00 22 1019.7
20260502195018 67 154 3.0 9.0 0.00 0.00 0.00 22 1019.7
20260502194541 67 137 2.0 6.0 0.00 0.00 0.00 25 1019.7
20260502194018 66 165 1.0 9.0 0.00 0.00 0.00 25 1019.8
20260502193518 66 157 1.0 9.0 0.00 0.00 0.00 27 1019.8
20260502193040 65 113 4.0 9.0 0.00 0.00 0.00 22 1019.9
20260502192519 65 132 3.0 7.0 0.00 0.00 0.00 24 1020.0
20260502192018 65 113 3.0 9.0 0.00 0.00 0.00 23 1020.1
20260502191552 66 111 4.0 9.0 0.00 0.00 0.00 20 1020.1
20260502191020 66 111 3.0 8.0 0.00 0.00 0.00 23 1020.1
20260502190521 66 106 3.0 9.0 0.00 0.00 0.00 22 1020.2
20260502190048 66 109 5.0 9.0 0.00 0.00 0.00 26 1020.2
20260502185521 65 70 1.0 5.0 0.00 0.00 0.00 27 1020.1
20260502185022 65 68 1.0 5.0 0.00 0.00 0.00 25 1020.2
20260502184546 65 78 1.0 9.0 0.00 0.00 0.00 24 1020.3
20260502184019 65 78 4.0 9.0 0.00 0.00 0.00 26 1020.4
20260502183521 65 81 4.0 8.0 0.00 0.00 0.00 24 1020.4
20260502183050 65 96 2.0 5.0 0.00 0.00 0.00 25 1020.4
20260502182521 64 104 2.0 7.0 0.00 0.00 0.00 25 1020.6
20260502182018 64 77 3.0 7.0 0.00 0.00 0.00 25 1020.7
20260502181545 64 109 2.0 8.0 0.00 0.00 0.00 27 1020.5
20260502181020 63 111 4.0 8.0 0.00 0.00 0.00 24 1020.5
20260502180521 63 159 4.0 15.0 0.00 0.00 0.00 26 1020.5
20260502164020 59 69 4.0 8.0 0.00 0.00 0.00 36 1021.0
20260502163520 59 76 4.0 8.0 0.00 0.00 0.00 36 1021.1
20260502163045 58 77 4.0 8.0 0.00 0.00 0.00 36 1021.1
20260502162522 58 71 4.0 8.0 0.00 0.00 0.00 38 1021.1
20260502162021 57 72 3.0 7.0 0.00 0.00 0.00 41 1021.1
20260502161537 56 71 3.0 5.0 0.00 0.00 0.00 42 1021.0
20260502161020 55 67 2.0 5.0 0.00 0.00 0.00 43 1021.1
20260502160524 54 86 2.0 4.0 0.00 0.00 0.00 44 1021.1
20260502152021 47 175 1.0 3.0 0.00 0.00 0.00 59 1021.2
20260502151542 45 182 1.0 3.0 0.00 0.00 0.00 62 1021.1
20260502151020 44 182 1.0 3.0 0.00 0.00 0.00 63 1021.2
20260502150520 43 0 0.0 3.0 0.00 0.00 0.00 67 1021.1
20260502130521 28 0 0.0 1.0 0.00 0.00 0.00 80 1020.8
20260502123523 28 0 0.0 0.0 0.00 0.00 0.00 79 1020.7
20260502123041 28 0 0.0 0.0 0.00 0.00 0.00 79 1020.8
20260502122521 28 0 0.0 0.0 0.00 0.00 0.00 80 1020.8
20260502122021 28 0 0.0 0.0 0.00 0.00 0.00 80 1020.8
20260502121548 28 0 0.0 0.0 0.00 0.00 0.00 80 1020.8
20260502121022 29 0 0.0 0.0 0.00 0.00 0.00 79 1020.8
20260502120520 29 0 0.0 0.0 0.00 0.00 0.00 78 1020.9
20260502115520 29 0 0.0 0.0 0.00 0.00 0.00 82 1020.7
20260502115020 29 0 0.0 0.0 0.00 0.00 0.00 82 1020.8
20260502114541 29 0 0.0 0.0 0.00 0.00 0.00 81 1020.9
20260502114020 29 0 0.0 0.0 0.00 0.00 0.00 82 1020.9
20260502113521 29 0 0.0 0.0 0.00 0.00 0.00 82 1021.0
20260502113036 28 0 0.0 0.0 0.00 0.00 0.00 81 1021.0
20260502112523 28 0 0.0 0.0 0.00 0.00 0.00 79 1021.0
20260502112021 28 0 0.0 1.0 0.00 0.00 0.00 78 1021.1
20260502111534 29 0 0.0 1.0 0.00 0.00 0.00 77 1021.0
20260502111021 29 0 0.0 0.0 0.00 0.00 0.00 78 1021.0
20260502110521 29 0 0.0 2.0 0.00 0.00 0.00 77 1021.0
20260502110038 29 0 0.0 2.0 0.00 0.00 0.00 78 1021.1
20260502105521 30 0 0.0 3.0 0.00 0.00 0.00 78 1021.1
20260502105020 30 0 0.0 3.0 0.00 0.00 0.00 80 1021.2
20260502104540 30 0 1.0 3.0 0.00 0.00 0.00 80 1021.2
20260502104020 30 238 1.0 3.0 0.00 0.00 0.00 80 1021.0
20260502103520 30 0 0.0 1.0 0.00 0.00 0.00 80 1021.1
20260502103044 30 219 0.0 1.0 0.00 0.00 0.00 79 1021.3
20260502102521 30 0 0.0 3.0 0.00 0.00 0.00 80 1021.2
20260502102020 30 0 0.0 3.0 0.00 0.00 0.00 79 1021.1
20260502101545 30 219 1.0 3.0 0.00 0.00 0.00 78 1021.1
20260502101020 30 0 2.0 4.0 0.00 0.00 0.00 77 1021.1
20260502100525 31 220 0.0 4.0 0.00 0.00 0.00 78 1021.1
20260502091021 32 0 0.0 0.0 0.00 0.00 0.00 73 1021.1
20260502090520 32 0 0.0 0.0 0.00 0.00 0.00 74 1021.2
20260502071021 41 0 0.0 1.0 0.00 0.00 0.00 60 1021.4
20260502070523 40 0 0.0 0.0 0.00 0.00 0.00 60 1021.4
20260502070037 40 0 0.0 0.0 0.00 0.00 0.00 62 1021.5
20260502065521 39 0 0.0 0.0 0.00 0.00 0.00 63 1021.4
20260502065024 39 0 0.0 0.0 0.00 0.00 0.00 62 1021.6
20260502064535 39 0 0.0 0.0 0.00 0.00 0.00 62 1021.5
20260502064020 39 0 0.0 0.0 0.00 0.00 0.00 62 1021.6
20260502063522 38 0 0.0 1.0 0.00 0.00 0.00 63 1021.6
20260502063041 38 0 0.0 1.0 0.00 0.00 0.00 64 1021.5
20260502062521 38 0 0.0 6.0 0.00 0.00 0.00 65 1021.6
20260502062023 38 202 2.0 6.0 0.00 0.00 0.00 66 1021.5
20260502061543 38 196 1.0 4.0 0.00 0.00 0.00 68 1021.5
20260502061021 37 177 2.0 4.0 0.00 0.00 0.00 68 1021.4
20260502060522 38 176 0.0 2.0 0.00 0.00 0.00 67 1021.3
20260502060041 38 0 0.0 1.0 0.00 0.00 0.00 67 1021.3
20260502055520 38 0 0.0 2.0 0.00 0.00 0.00 67 1021.3
20260502055022 38 0 0.0 2.0 0.00 0.00 0.00 66 1021.3
20260502054537 38 176 0.0 2.0 0.00 0.00 0.00 64 1021.4
20260502054021 39 0 0.0 0.0 0.00 0.00 0.00 64 1021.3
20260502053520 39 0 0.0 0.0 0.00 0.00 0.00 65 1021.4
20260502053036 39 0 0.0 0.0 0.00 0.00 0.00 65 1021.4
20260502052521 40 0 0.0 0.0 0.00 0.00 0.00 63 1021.4
20260502052020 40 0 0.0 1.0 0.00 0.00 0.00 63 1021.3
20260502051550 40 0 0.0 1.0 0.00 0.00 0.00 63 1021.3
20260502051019 40 0 0.0 1.0 0.00 0.00 0.00 62 1021.1
20260502050526 41 0 0.0 2.0 0.00 0.00 0.00 63 1021.2
20260502050042 41 0 0.0 4.0 0.00 0.00 0.00 63 1021.3
20260502045521 41 176 1.0 4.0 0.00 0.00 0.00 62 1021.3
20260502045027 42 352 2.0 4.0 0.00 0.00 0.00 59 1021.3
20260502044541 44 352 1.0 3.0 0.00 0.00 0.00 52 1021.3
20260502044026 44 351 0.0 2.0 0.00 0.00 0.00 56 1021.3
20260502043522 44 352 0.0 2.0 0.00 0.00 0.00 57 1021.3
20260502043040 44 352 0.0 3.0 0.00 0.00 0.00 57 1021.3
20260502042520 45 352 1.0 3.0 0.00 0.00 0.00 57 1021.3
20260502042023 46 352 2.0 4.0 0.00 0.00 0.00 56 1021.1
20260502041559 46 352 2.0 4.0 0.00 0.00 0.00 55 1021.3
20260502041021 47 355 2.0 4.0 0.00 0.00 0.00 54 1021.1
20260502040520 49 343 2.0 3.0 0.00 0.00 0.00 52 1021.1
20260502040041 49 342 1.0 5.0 0.00 0.00 0.00 49 1021.1
20260502035520 49 0 0.0 5.0 0.00 0.00 0.00 49 1021.1
20260502035021 48 342 3.0 5.0 0.00 0.00 0.00 49 1021.0
20260502034542 48 341 3.0 5.0 0.00 0.00 0.00 50 1021.0
20260502034023 48 338 3.0 5.0 0.00 0.00 0.00 49 1020.9
20260502033520 50 325 3.0 4.0 0.00 0.00 0.00 43 1020.9
20260502033053 51 302 1.0 4.0 0.00 0.00 0.00 41 1020.8
20260502032523 52 192 0.0 5.0 0.00 0.00 0.00 42 1020.4
20260502032020 52 0 1.0 6.0 0.00 0.00 0.00 42 1020.4
20260502031541 52 192 4.0 6.0 0.00 0.00 0.00 42 1020.3
20260502031020 52 190 4.0 6.0 0.00 0.00 0.00 43 1020.2
20260502030521 53 191 5.0 7.0 0.00 0.00 0.00 42 1020.2
20260502030042 53 182 5.0 7.0 0.00 0.00 0.00 42 1020.1
20260502025523 53 181 5.0 7.0 0.00 0.00 0.00 42 1020.1
20260502025020 54 188 4.0 6.0 0.00 0.00 0.00 43 1020.1
20260502024538 54 201 3.0 7.0 0.00 0.00 0.00 41 1020.1
20260502024020 55 202 5.0 7.0 0.00 0.00 0.00 43 1020.1
20260502023520 55 211 4.0 6.0 0.00 0.00 0.00 40 1020.1
20260502023035 56 186 2.0 6.0 0.00 0.00 0.00 40 1020.1
20260502022521 56 177 4.0 8.0 0.00 0.00 0.00 40 1020.1
20260502022022 57 175 6.0 8.0 0.00 0.00 0.00 39 1020.1
20260502021542 58 177 5.0 7.0 0.00 0.00 0.00 39 1020.0
20260502021024 57 178 5.0 8.0 0.00 0.00 0.00 38 1019.9
20260502020521 57 178 6.0 9.0 0.00 0.00 0.00 39 1019.9
20260502020045 58 167 6.0 9.0 0.00 0.00 0.00 39 1020.0
20260502015521 59 163 6.0 9.0 0.00 0.00 0.00 41 1019.9
20260502015026 59 164 6.0 9.0 0.00 0.00 0.00 39 1019.9
20260502014541 60 169 6.0 9.0 0.00 0.00 0.00 38 1019.8
20260502014020 61 173 6.0 9.0 0.00 0.00 0.00 37 1019.9
20260502013520 62 166 6.0 8.0 0.00 0.00 0.00 35 1019.9
20260502013038 62 169 6.0 8.0 0.00 0.00 0.00 34 1019.9
20260502012523 63 188 6.0 8.0 0.00 0.00 0.00 30 1020.0
20260502012020 64 0 0.0 2.0 0.00 0.00 0.00 31 1019.9
20260502011536 64 0 0.0 2.0 0.00 0.00 0.00 28 1020.0
20260502011020 64 101 0.0 3.0 0.00 0.00 0.00 29 1019.9
20260502010521 65 0 1.0 3.0 0.00 0.00 0.00 24 1020.0
20260502010037 65 101 1.0 3.0 0.00 0.00 0.00 25 1020.0
20260502005520 65 0 0.0 3.0 0.00 0.00 0.00 26 1020.1
20260502005023 65 101 1.0 3.0 0.00 0.00 0.00 26 1020.1
20260502004539 66 101 1.0 3.0 0.00 0.00 0.00 24 1020.1
20260502004023 66 101 1.0 4.0 0.00 0.00 0.00 23 1020.2
20260502003520 66 103 1.0 4.0 0.00 0.00 0.00 23 1020.1
20260502003040 66 115 1.0 3.0 0.00 0.00 0.00 24 1020.2
20260502002523 66 117 2.0 4.0 0.00 0.00 0.00 23 1020.2
20260502002023 66 161 1.0 6.0 0.00 0.00 0.00 26 1020.2
20260502001538 66 162 1.0 6.0 0.00 0.00 0.00 25 1020.0
20260502001022 67 162 4.0 6.0 0.00 0.00 0.00 24 1020.1
20260502000521 68 167 2.0 5.0 0.00 0.00 0.00 22 1020.1
20260502000037 68 5 0.0 4.0 0.00 0.00 0.00 24 1020.1
20260501235521 68 5 1.0 4.0 0.00 0.00 0.00 23 1020.2
20260501235022 68 5 0.0 4.0 0.00 0.00 0.00 23 1020.3
20260501234534 67 5 1.0 6.0 0.00 0.00 0.00 24 1020.4
20260501234022 67 5 2.0 6.0 0.00 0.00 0.00 23 1020.4
20260501233521 67 46 3.0 6.0 0.00 0.00 0.00 24 1020.4
20260501233040 66 67 1.0 3.0 0.00 0.00 0.00 25 1020.4
20260501232520 66 103 1.0 6.0 0.00 0.00 0.00 22 1020.4
20260501232018 65 98 2.0 7.0 0.00 0.00 0.00 24 1020.6
20260501231553 66 0 2.0 7.0 0.00 0.00 0.00 21 1020.6
20260501231020 67 65 2.0 5.0 0.00 0.00 0.00 23 1020.7
20260501230523 67 79 1.0 6.0 0.00 0.00 0.00 25 1020.8
20260501230039 66 168 0.0 6.0 0.00 0.00 0.00 28 1020.9
20260501225519 66 88 2.0 5.0 0.00 0.00 0.00 24 1020.8
20260501225026 65 210 3.0 5.0 0.00 0.00 0.00 24 1020.9
20260501224537 65 76 1.0 4.0 0.00 0.00 0.00 28 1020.9
20260501224021 65 94 2.0 4.0 0.00 0.00 0.00 23 1021.1
20260501223522 66 0 1.0 4.0 0.00 0.00 0.00 25 1021.0
20260501223108 66 61 1.0 6.0 0.00 0.00 0.00 24 1021.3
20260501222521 66 58 3.0 6.0 0.00 0.00 0.00 27 1021.3
20260501222021 66 63 2.0 5.0 0.00 0.00 0.00 26 1021.4
20260501221541 66 69 3.0 5.0 0.00 0.00 0.00 27 1021.4
20260501221021 66 21 1.0 8.0 0.00 0.00 0.00 26 1021.6
20260501220518 66 58 3.0 8.0 0.00 0.00 0.00 27 1021.6
20260501220041 66 46 3.0 6.0 0.00 0.00 0.00 28 1021.6
20260501215522 65 35 2.0 6.0 0.00 0.00 0.00 31 1021.7